Regional Weather Roundup
Issued by NWS Newport/Morehead, NC

Current Version | Previous Version | Graphics & Text | Print | Product List | Glossary Off
Versions: 1 2 3 4 5 6 7 8 9 10 11 12 13 14 15 16 17 18 19 20 21 22 23 24 25 26 27 28 29 30 31 32 33 34 35 36 37 38 39 40 41 42 43 44 45 46 47 48 49 50

000
ASUS42 KMHX 222225
RWRMHX
WEATHER ROUNDUP FOR EASTERN NORTH CAROLINA
NATIONAL WEATHER SERVICE NEWPORT/MOREHEAD CITY NC
500 PM EST WED NOV 22 2017

NOTE: "FAIR" INDICATES FEW OR NO CLOUDS BELOW 12,000 FEET
WITH NO SIGNIFICANT WEATHER AND/OR OBSTRUCTIONS TO VISIBILITY

NCZ015>017-031-032-045>047-102-103-222300-
NORTH COAST

CITY           SKY/WX    TMP DP  RH WIND       PRES   REMARKS
EDENTON        MOCLDY    58  49  70 CALM      30.00R
ELIZABETH CITY PTCLDY    58  47  66 N10       29.99R
KITTY HAWK     CLEAR     56  41  57 N9G21     29.98R
MANTEO         CLEAR     56  44  63 N14       29.99R

$$

NCZ045>047-081-094-103-104-222300-
CENTRAL COAST

CITY           SKY/WX    TMP DP  RH WIND       PRES   REMARKS
FRISCO         CLEAR     58  49  72 NE13G22   29.97R

$$

NCZ095-097-098-100-101-222300-
SOUTHERN COAST

CITY           SKY/WX    TMP DP  RH WIND       PRES   REMARKS
BEAUFORT       CLEAR     61  50  67 N6        29.98R
CEDAR ISLAND   NOT AVBL
JACKSONVILLE   CLEAR     62  45  53 N6        29.99R
PINEY ISLAND   NOT AVBL
WILMINGTON     CLEAR     65  46  50 N7        29.98R


$$

NCZ011>013-027>030-043-044-078>080-089-090>093-098-222300-
COASTAL PLAIN

CITY           SKY/WX    TMP DP  RH WIND       PRES   REMARKS
AHOSKIE        CLEAR     55  37  51 CALM      30.02R
CLINTON        PTCLDY    59  40  49 CALM      30.02R
ELIZABETHTOWN  NOT AVBL
GOLDSBORO      CLEAR     60  36  40 NW9       29.99R
GREENVILLE     PTCLDY    59  39  47 NW3       30.02R
HAVELOCK       NOT AVBL
KENANSVILLE    CLEAR     59  36  41 N5        30.02R
KINSTON        CLEAR     59  39  47 N6        30.01R
NEW BERN       CLEAR     59  46  62 N7        30.00R
RICHLANDS      CLEAR     61  43  51 CALM      30.00R
ROCKY MOUNT    CLEAR     57  38  48 N6        30.02R
WASHINGTON     PTCLDY    58  46  63 CALM      30.00R
WHITEVILLE     CLEAR     62  42  48 N5        30.00R

$$

AMZ130-135-150-152-154-156-158-170-250-252-270-ANZ085-086-088-633-658-670-222300-
MARINE OBSERVATIONS

STATION/POSITION TIME  TEMP    WIND        PRES    WAVE   SWELL
                       AIR SEA DIR/SP/G            HT/PER HT/PER
                 (UTC) (F)     (DEG/KT/KT) (MB)    (FT/S) (FT/S)
CHESAPEAKE LIGHT NOT AVBL
64 E VA BEACH    2150   59 62  330/ 23/ 29 1014.7    8/ 6   3/ 9
DUCK             2200   59 60   10/ 18/ 22 1014.7
2 E DUCK         2130      61                N/A     6/ 5
OREGON INLET     2200   58 57  360/ 13/ 19 1014.9
13E OREGON INLT  2148      65                N/A     8/ 6   5/ 9
HATTERAS CG      2200   58 60   30/ 16/ 22 1014.6
DIAMOND BUOY     2210   62 74   10/ 23/ 31 1014.9
CAPE LOOKOUT     2200           10/  8/  9 1015.2
BEAUFORT LAB     2200   62 61  350/  4/  6 1015.0
30 SE NEW RVR IN 2208   66 66   10/ 12/ 17 1015.2
30 SE NEW RVR IN 2130      66                N/A     5/ 8   2/11
27 SE WRIGHTSVLE 2208   67 68   30/ 14/ 17 1014.8
5 SE WRIGHTSVLE  2208   66 64  360/  8/ 10 1014.8
225 S CAPE HAT   2150   73 76  350/ 14/ 17 1012.7    6/ 9   5/ 9
41 SE CHARLESTON 2210   67 75   20/ 10/ 14 1015.0

$$




USA.gov is the U.S. government's official web portal to all federal, state and local government web resources and services.